| time (UTC) | temp F | wind direction | speed MPH | gust MPH | rain 1hr in | rain 24hr in | rain mn in | humidity % | barometer mb |
| 20260905184039 | 81 | 0.0 | 0.0 | 0.00 | 0.00 | 0.00 | 39 | 1017.7 | |
| 20260905183027 | 81 | 0.0 | 0.0 | 0.00 | 0.00 | 0.00 | 39 | 1017.6 | |
| 20260905182019 | 82 | 20 | 0.0 | 2.0 | 0.00 | 0.00 | 0.00 | 38 | 1017.6 |
| 20260905181027 | 82 | 124 | 2.0 | 8.0 | 0.00 | 0.00 | 0.00 | 37 | 1017.3 |
| 20260905180019 | 82 | 131 | 2.0 | 10.0 | 0.00 | 0.00 | 0.00 | 37 | 1017.3 |
| 20260905175027 | 82 | 140 | 2.0 | 10.0 | 0.00 | 0.00 | 0.00 | 38 | 1017.3 |
| 20260905174019 | 83 | 128 | 3.0 | 13.0 | 0.00 | 0.00 | 0.00 | 37 | 1017.3 |
| 20260905173047 | 83 | 121 | 5.0 | 13.0 | 0.00 | 0.00 | 0.00 | 37 | 1017.2 |
| 20260905172059 | 84 | 124 | 2.0 | 8.0 | 0.00 | 0.00 | 0.00 | 37 | 1016.9 |
| 20260905171027 | 84 | 113 | 3.0 | 8.0 | 0.00 | 0.00 | 0.00 | 36 | 1016.9 |
| 20260905170019 | 84 | 124 | 4.0 | 10.0 | 0.00 | 0.00 | 0.00 | 37 | 1017.1 |
| 20260905165027 | 85 | 121 | 3.0 | 10.0 | 0.00 | 0.00 | 0.00 | 37 | 1017.2 |
| 20260905164019 | 86 | 122 | 3.0 | 10.0 | 0.00 | 0.00 | 0.00 | 37 | 1017.2 |
| 20260905163047 | 86 | 126 | 4.0 | 10.0 | 0.00 | 0.00 | 0.00 | 36 | 1017.1 |
| 20260905162019 | 87 | 135 | 1.0 | 5.0 | 0.00 | 0.00 | 0.00 | 35 | 1017.0 |
| 20260905161027 | 87 | 98 | 4.0 | 10.0 | 0.00 | 0.00 | 0.00 | 33 | 1017.1 |
| 20260905160019 | 87 | 7 | 3.0 | 10.0 | 0.00 | 0.00 | 0.00 | 32 | 1017.0 |
| 20260905155027 | 88 | 15 | 9.0 | 17.0 | 0.00 | 0.00 | 0.00 | 32 | 1017.3 |
| 20260905154039 | 88 | 21 | 6.0 | 15.0 | 0.00 | 0.00 | 0.00 | 32 | 1017.2 |
| 20260905153027 | 89 | 18 | 5.0 | 15.0 | 0.00 | 0.00 | 0.00 | 31 | 1017.2 |
| 20260905152019 | 89 | 13 | 6.0 | 15.0 | 0.00 | 0.00 | 0.00 | 32 | 1017.2 |
| 20260905151027 | 89 | 22 | 5.0 | 15.0 | 0.00 | 0.00 | 0.00 | 31 | 1017.2 |
| 20260905150019 | 90 | 89 | 5.0 | 13.0 | 0.00 | 0.00 | 0.00 | 31 | 1017.3 |
| 20260905145027 | 90 | 44 | 4.0 | 13.0 | 0.00 | 0.00 | 0.00 | 31 | 1017.1 |
| 20260905144019 | 90 | 9 | 5.0 | 13.0 | 0.00 | 0.00 | 0.00 | 31 | 1017.3 |
| 20260905143027 | 90 | 326 | 3.0 | 10.0 | 0.00 | 0.00 | 0.00 | 30 | 1017.0 |
| 20260905142019 | 90 | 65 | 7.0 | 20.0 | 0.00 | 0.00 | 0.00 | 30 | 1017.0 |
| 20260905141027 | 90 | 107 | 6.0 | 15.0 | 0.00 | 0.00 | 0.00 | 32 | 1017.0 |
| 20260905140039 | 90 | 67 | 6.0 | 13.0 | 0.00 | 0.00 | 0.00 | 31 | 1017.0 |
| 20260905135027 | 90 | 7 | 4.0 | 10.0 | 0.00 | 0.00 | 0.00 | 32 | 1017.2 |
| 20260905134039 | 90 | 28 | 5.0 | 13.0 | 0.00 | 0.00 | 0.00 | 33 | 1017.1 |
| 20260905133027 | 90 | 19 | 6.0 | 17.0 | 0.00 | 0.00 | 0.00 | 33 | 1017.4 |
| 20260905132019 | 90 | 8 | 5.0 | 17.0 | 0.00 | 0.00 | 0.00 | 33 | 1017.3 |
| 20260905131047 | 90 | 125 | 4.0 | 15.0 | 0.00 | 0.00 | 0.00 | 32 | 1017.3 |
| 20260905130019 | 90 | 26 | 5.0 | 13.0 | 0.00 | 0.00 | 0.00 | 33 | 1017.4 |
| 20260905125027 | 90 | 101 | 5.0 | 15.0 | 0.00 | 0.00 | 0.00 | 32 | 1017.4 |
| 20260905124019 | 90 | 33 | 7.0 | 15.0 | 0.00 | 0.00 | 0.00 | 33 | 1017.4 |
| 20260905123027 | 90 | 7 | 4.0 | 13.0 | 0.00 | 0.00 | 0.00 | 33 | 1017.3 |
| 20260905122019 | 89 | 123 | 8.0 | 15.0 | 0.00 | 0.00 | 0.00 | 32 | 1017.4 |
| 20260905121027 | 89 | 53 | 5.0 | 20.0 | 0.00 | 0.00 | 0.00 | 32 | 1017.5 |
| 20260905120019 | 89 | 78 | 5.0 | 15.0 | 0.00 | 0.00 | 0.00 | 34 | 1017.5 |
| 20260905115027 | 89 | 115 | 8.0 | 23.0 | 0.00 | 0.00 | 0.00 | 34 | 1017.7 |
| 20260905114019 | 89 | 112 | 7.0 | 20.0 | 0.00 | 0.00 | 0.00 | 34 | 1017.7 |
| 20260905113027 | 89 | 112 | 5.0 | 15.0 | 0.00 | 0.00 | 0.00 | 34 | 1017.7 |
| 20260905112019 | 89 | 114 | 5.0 | 15.0 | 0.00 | 0.00 | 0.00 | 35 | 1017.8 |
| 20260905111027 | 89 | 108 | 5.0 | 13.0 | 0.00 | 0.00 | 0.00 | 35 | 1017.8 |
| 20260905110019 | 89 | 127 | 8.0 | 17.0 | 0.00 | 0.00 | 0.00 | 35 | 1017.7 |
| 20260905105027 | 88 | 107 | 5.0 | 10.0 | 0.00 | 0.00 | 0.00 | 34 | 1017.8 |
| 20260905104039 | 88 | 134 | 8.0 | 20.0 | 0.00 | 0.00 | 0.00 | 35 | 1017.8 |
| 20260905103027 | 88 | 116 | 6.0 | 15.0 | 0.00 | 0.00 | 0.00 | 35 | 1017.8 |
| 20260905102019 | 88 | 56 | 6.0 | 20.0 | 0.00 | 0.00 | 0.00 | 35 | 1017.8 |
| 20260905101047 | 88 | 127 | 7.0 | 30.0 | 0.00 | 0.00 | 0.00 | 34 | 1017.8 |
| 20260905100019 | 88 | 121 | 6.0 | 15.0 | 0.00 | 0.00 | 0.00 | 34 | 1017.8 |
| 20260905095027 | 87 | 52 | 7.0 | 20.0 | 0.00 | 0.00 | 0.00 | 34 | 1017.9 |
| 20260905094019 | 87 | 16 | 7.0 | 20.0 | 0.00 | 0.00 | 0.00 | 35 | 1017.9 |
| 20260905093026 | 87 | 109 | 8.0 | 20.0 | 0.00 | 0.00 | 0.00 | 34 | 1018.0 |
| 20260905092019 | 87 | 8 | 8.0 | 17.0 | 0.00 | 0.00 | 0.00 | 36 | 1018.1 |
| 20260905091027 | 87 | 42 | 6.0 | 15.0 | 0.00 | 0.00 | 0.00 | 35 | 1018.0 |
| 20260905090019 | 86 | 2 | 9.0 | 20.0 | 0.00 | 0.00 | 0.00 | 37 | 1018.0 |
| 20260905085027 | 86 | 99 | 7.0 | 17.0 | 0.00 | 0.00 | 0.00 | 37 | 1018.1 |
| 20260905084038 | 85 | 34 | 5.0 | 15.0 | 0.00 | 0.00 | 0.00 | 38 | 1018.0 |
| 20260905083027 | 85 | 17 | 8.0 | 15.0 | 0.00 | 0.00 | 0.00 | 39 | 1018.0 |
| 20260905082019 | 86 | 10 | 11.0 | 25.0 | 0.00 | 0.00 | 0.00 | 39 | 1018.1 |
| 20260905081027 | 86 | 14 | 9.0 | 23.0 | 0.00 | 0.00 | 0.00 | 38 | 1018.1 |
| 20260905080018 | 85 | 48 | 5.0 | 13.0 | 0.00 | 0.00 | 0.00 | 38 | 1018.0 |
| 20260905075026 | 85 | 37 | 5.0 | 13.0 | 0.00 | 0.00 | 0.00 | 39 | 1018.0 |
| 20260905074018 | 84 | 348 | 6.0 | 17.0 | 0.00 | 0.00 | 0.00 | 39 | 1018.0 |
| 20260905073027 | 84 | 148 | 5.0 | 13.0 | 0.00 | 0.00 | 0.00 | 39 | 1017.8 |
| 20260905072018 | 84 | 14 | 3.0 | 13.0 | 0.00 | 0.00 | 0.00 | 41 | 1017.7 |
| 20260905071026 | 84 | 11 | 6.0 | 20.0 | 0.00 | 0.00 | 0.00 | 41 | 1017.8 |
| 20260905070038 | 83 | 35 | 6.0 | 15.0 | 0.00 | 0.00 | 0.00 | 40 | 1017.7 |
| 20260905065027 | 83 | 74 | 4.0 | 10.0 | 0.00 | 0.00 | 0.00 | 40 | 1017.7 |
| 20260905064019 | 82 | 39 | 6.0 | 13.0 | 0.00 | 0.00 | 0.00 | 41 | 1017.7 |
| 20260905063027 | 82 | 25 | 7.0 | 30.0 | 0.00 | 0.00 | 0.00 | 42 | 1017.6 |
| 20260905062019 | 82 | 22 | 8.0 | 20.0 | 0.00 | 0.00 | 0.00 | 43 | 1017.7 |
| 20260905061027 | 82 | 19 | 6.0 | 23.0 | 0.00 | 0.00 | 0.00 | 42 | 1017.7 |
| 20260905060019 | 82 | 13 | 4.0 | 13.0 | 0.00 | 0.00 | 0.00 | 43 | 1017.8 |
| 20260905055027 | 83 | 33 | 3.0 | 13.0 | 0.00 | 0.00 | 0.00 | 43 | 1017.8 |
| 20260905054018 | 83 | 53 | 3.0 | 13.0 | 0.00 | 0.00 | 0.00 | 44 | 1017.7 |
| 20260905053026 | 81 | 122 | 0.0 | 2.0 | 0.00 | 0.00 | 0.00 | 46 | 1017.7 |
| 20260905052018 | 80 | 0.0 | 0.0 | 0.00 | 0.00 | 0.00 | 49 | 1017.6 | |
| 20260905051026 | 78 | 0.0 | 0.0 | 0.00 | 0.00 | 0.00 | 52 | 1017.4 | |
| 20260905050019 | 77 | 0.0 | 0.0 | 0.00 | 0.00 | 0.00 | 54 | 1017.6 | |
| 20260905045027 | 76 | 0.0 | 0.0 | 0.00 | 0.00 | 0.00 | 55 | 1017.3 | |
| 20260905044018 | 76 | 0.0 | 0.0 | 0.00 | 0.00 | 0.00 | 57 | 1017.3 | |
| 20260905043027 | 75 | 0.0 | 0.0 | 0.00 | 0.00 | 0.00 | 58 | 1017.3 | |
| 20260905042018 | 75 | 350 | 2.0 | 8.0 | 0.00 | 0.00 | 0.00 | 55 | 1017.2 |
| 20260905041026 | 75 | 0.0 | 0.0 | 0.00 | 0.00 | 0.00 | 56 | 1016.9 | |
| 20260905040019 | 75 | 0.0 | 0.0 | 0.00 | 0.00 | 0.00 | 57 | 1016.7 | |
| 20260905035027 | 75 | 0.0 | 0.0 | 0.00 | 0.00 | 0.00 | 59 | 1016.7 | |
| 20260905034018 | 75 | 0.0 | 0.0 | 0.00 | 0.00 | 0.00 | 58 | 1016.6 | |
| 20260905033027 | 75 | 0.0 | 0.0 | 0.00 | 0.00 | 0.00 | 58 | 1016.6 | |
| 20260905032018 | 76 | 0.0 | 0.0 | 0.00 | 0.00 | 0.00 | 57 | 1016.6 | |
| 20260905031026 | 76 | 1 | 0.0 | 2.0 | 0.00 | 0.00 | 0.00 | 55 | 1016.5 |
| 20260905030018 | 76 | 0.0 | 0.0 | 0.00 | 0.00 | 0.00 | 57 | 1016.4 | |
| 20260905025027 | 76 | 0.0 | 0.0 | 0.00 | 0.00 | 0.00 | 57 | 1016.6 | |
| 20260905024018 | 76 | 129 | 1.0 | 5.0 | 0.00 | 0.00 | 0.00 | 55 | 1016.5 |
| 20260905023026 | 76 | 0.0 | 0.0 | 0.00 | 0.00 | 0.00 | 52 | 1016.5 | |
| 20260905022018 | 76 | 0.0 | 0.0 | 0.00 | 0.00 | 0.00 | 52 | 1016.7 | |
| 20260905021026 | 76 | 0.0 | 0.0 | 0.00 | 0.00 | 0.00 | 53 | 1016.7 | |
| 20260905020018 | 77 | 0.0 | 0.0 | 0.00 | 0.00 | 0.00 | 53 | 1016.7 | |
| 20260905015027 | 77 | 19 | 3.0 | 8.0 | 0.00 | 0.00 | 0.00 | 53 | 1016.7 |
| 20260905014018 | 77 | 40 | 1.0 | 8.0 | 0.00 | 0.00 | 0.00 | 52 | 1016.4 |
| 20260905013026 | 78 | 129 | 4.0 | 13.0 | 0.00 | 0.00 | 0.00 | 50 | 1016.4 |
| 20260905012018 | 78 | 130 | 6.0 | 10.0 | 0.00 | 0.00 | 0.00 | 49 | 1016.6 |
| 20260905011026 | 78 | 122 | 5.0 | 13.0 | 0.00 | 0.00 | 0.00 | 49 | 1016.6 |
| 20260905010018 | 78 | 124 | 5.0 | 13.0 | 0.00 | 0.00 | 0.00 | 48 | 1016.6 |
| 20260905005026 | 78 | 124 | 3.0 | 8.0 | 0.00 | 0.00 | 0.00 | 48 | 1016.6 |
| 20260905004038 | 77 | 132 | 3.0 | 8.0 | 0.00 | 0.00 | 0.00 | 47 | 1016.7 |
| 20260905003026 | 77 | 130 | 1.0 | 5.0 | 0.00 | 0.00 | 0.00 | 47 | 1016.7 |
| 20260905002038 | 76 | 124 | 1.0 | 5.0 | 0.00 | 0.00 | 0.00 | 46 | 1016.6 |
| 20260905001026 | 76 | 0.0 | 0.0 | 0.00 | 0.00 | 0.00 | 47 | 1016.6 | |
| 20260905000018 | 75 | 0.0 | 0.0 | 0.00 | 0.00 | 0.00 | 48 | 1016.7 | |
| 20260904235026 | 75 | 0.0 | 0.0 | 0.00 | 0.00 | 0.00 | 50 | 1016.6 | |
| 20260904234018 | 75 | 0.0 | 0.0 | 0.00 | 0.00 | 0.00 | 49 | 1016.6 | |
| 20260904233026 | 76 | 0.0 | 0.0 | 0.00 | 0.00 | 0.00 | 49 | 1016.6 | |
| 20260904232018 | 76 | 0.0 | 0.0 | 0.00 | 0.00 | 0.00 | 49 | 1016.6 | |
| 20260904231026 | 77 | 0.0 | 0.0 | 0.00 | 0.00 | 0.00 | 48 | 1016.7 | |
| 20260904230018 | 77 | 0.0 | 0.0 | 0.00 | 0.00 | 0.00 | 47 | 1016.8 | |
| 20260904225026 | 77 | 0.0 | 0.0 | 0.00 | 0.00 | 0.00 | 46 | 1016.9 | |
| 20260904224018 | 78 | 0.0 | 0.0 | 0.00 | 0.00 | 0.00 | 46 | 1017.0 | |
| 20260904223026 | 78 | 0.0 | 0.0 | 0.00 | 0.00 | 0.00 | 46 | 1017.0 | |
| 20260904222018 | 78 | 0.0 | 0.0 | 0.00 | 0.00 | 0.00 | 45 | 1017.0 | |
| 20260904221026 | 79 | 141 | 0.0 | 2.0 | 0.00 | 0.00 | 0.00 | 45 | 1017.0 |
| 20260904220018 | 79 | 124 | 1.0 | 5.0 | 0.00 | 0.00 | 0.00 | 44 | 1017.0 |
| 20260904215028 | 79 | 120 | 1.0 | 5.0 | 0.00 | 0.00 | 0.00 | 44 | 1017.3 |
| 20260904214019 | 79 | 122 | 1.0 | 5.0 | 0.00 | 0.00 | 0.00 | 43 | 1017.2 |
| 20260904213027 | 79 | 127 | 1.0 | 8.0 | 0.00 | 0.00 | 0.00 | 42 | 1017.2 |
| 20260904212019 | 79 | 130 | 1.0 | 8.0 | 0.00 | 0.00 | 0.00 | 42 | 1017.2 |
| 20260904211027 | 79 | 126 | 1.0 | 5.0 | 0.00 | 0.00 | 0.00 | 42 | 1017.1 |
| 20260904210019 | 79 | 143 | 1.0 | 8.0 | 0.00 | 0.00 | 0.00 | 42 | 1017.0 |
| 20260904205029 | 79 | 133 | 0.0 | 5.0 | 0.00 | 0.00 | 0.00 | 42 | 1017.2 |
| 20260904204019 | 79 | 118 | 0.0 | 2.0 | 0.00 | 0.00 | 0.00 | 43 | 1017.3 |
| 20260904203027 | 79 | 134 | 0.0 | 5.0 | 0.00 | 0.00 | 0.00 | 44 | 1017.3 |
| 20260904202059 | 79 | 133 | 0.0 | 5.0 | 0.00 | 0.00 | 0.00 | 44 | 1017.2 |
| 20260904201027 | 79 | 137 | 1.0 | 5.0 | 0.00 | 0.00 | 0.00 | 44 | 1017.2 |
| 20260904200019 | 79 | 0.0 | 0.0 | 0.00 | 0.00 | 0.00 | 45 | 1017.3 | |
| 20260904195027 | 79 | 131 | 2.0 | 8.0 | 0.00 | 0.00 | 0.00 | 45 | 1017.3 |
| 20260904194039 | 79 | 113 | 2.0 | 8.0 | 0.00 | 0.00 | 0.00 | 46 | 1017.3 |
| 20260904193027 | 79 | 140 | 2.0 | 8.0 | 0.00 | 0.00 | 0.00 | 46 | 1017.3 |
| 20260904192020 | 79 | 84 | 0.0 | 5.0 | 0.00 | 0.00 | 0.00 | 46 | 1017.3 |
| 20260904191049 | 79 | 133 | 2.0 | 8.0 | 0.00 | 0.00 | 0.00 | 44 | 1017.3 |
| 20260904190019 | 79 | 0.0 | 0.0 | 0.00 | 0.00 | 0.00 | 45 | 1017.1 | |
| 20260904185027 | 80 | 0.0 | 0.0 | 0.00 | 0.00 | 0.00 | 46 | 1017.1 |